DW8947 Weather Reports


time (UTC)temp
C
wind
direction
speed
KPH
gust
KPH
rain 1hr
cm
rain 24hr
cm
rain mn
cm
humidity
%
barometer
mb
20260902210705 17 300 0.0 3.2 0.00 0.05 0.05 82 1002.5
20260902205205 18 163 1.6 3.2 0.00 0.05 0.05 79 1002.4
20260902204705 17 262 1.6 3.2 0.03 0.05 0.05 80 1002.4
20260902204205 17 240 0.0 3.2 0.03 0.05 0.05 81 1002.5
20260902202705 17 4 0.0 3.2 0.05 0.05 0.05 83 1002.5
20260902202205 17 216 0.0 4.8 0.05 0.05 0.05 84 1002.6
20260902195704 16 146 0.0 1.6 0.05 0.05 0.05 87 1002.8
20260902195204 16 117 0.0 3.2 0.05 0.05 0.05 87 1002.8
20260902192205 18 152 1.6 4.8 0.00 0.00 0.00 68 1002.7
20260902191705 18 162 1.6 4.8 0.00 0.00 0.00 68 1002.7
20260902191205 18 163 1.6 3.2 0.00 0.00 0.00 66 1002.7
20260902190705 19 159 0.0 3.2 0.00 0.00 0.00 70 1002.8
20260902185207 18 237 0.0 3.2 0.00 0.00 0.00 69 1003.0
20260902184705 18 237 0.0 1.6 0.00 0.00 0.00 73 1003.0
20260902184205 17 193 0.0 3.2 0.00 0.00 0.00 74 1003.1
20260902183705 17 160 0.0 3.2 0.00 0.00 0.00 75 1003.1
20260902182205 17 160 0.0 3.2 0.00 0.00 0.00 76 1003.4
20260902181705 17 160 0.0 3.2 0.00 0.00 0.00 77 1003.5
20260902181205 17 160 0.0 3.2 0.00 0.00 0.00 76 1003.5
20260902172705 17 160 0.0 3.2 0.00 0.00 0.00 78 1003.9
20260902172205 17 160 0.0 3.2 0.00 0.00 0.00 77 1003.9
20260902170704 16 154 0.0 3.2 0.00 0.00 0.00 79 1004.1
20260902165705 16 138 0.0 1.6 0.00 0.00 0.00 79 1004.2
20260902165204 16 137 0.0 3.2 0.00 0.00 0.00 79 1004.2
20260902164704 16 137 0.0 3.2 0.00 0.00 0.00 80 1004.2
20260902164204 16 151 0.0 1.6 0.00 0.00 0.00 80 1004.2
20260902163705 16 151 0.0 3.2 0.00 0.00 0.00 80 1004.2
20260902162705 16 169 0.0 3.2 0.00 0.00 0.00 80 1004.4
20260902161705 16 206 0.0 3.2 0.00 0.00 0.00 81 1004.5
20260902160205 16 169 0.0 3.2 0.00 0.00 0.00 82 1004.5
20260902155704 16 169 1.6 3.2 0.00 0.00 0.00 83 1004.5
20260902155204 16 144 0.0 3.2 0.00 0.00 0.00 83 1004.5
20260902153705 16 166 0.0 1.6 0.00 0.00 0.00 83 1004.8
20260902153205 16 166 0.0 3.2 0.00 0.00 0.00 84 1004.8
20260902151705 15 183 0.0 3.2 0.00 0.00 0.00 87 1005.0
20260902151205 15 153 0.0 3.2 0.00 0.00 0.00 86 1005.0
20260902150704 15 153 1.6 3.2 0.00 0.00 0.00 87 1005.1
20260902150205 15 148 0.0 3.2 0.00 0.00 0.00 86 1005.1
20260902144204 15 176 0.0 3.2 0.00 0.00 0.00 86 1005.3
20260902143705 15 176 0.0 3.2 0.00 0.00 0.00 86 1005.4
20260902143205 15 170 0.0 3.2 0.00 0.00 0.00 85 1005.4
20260902142705 15 178 0.0 3.2 0.00 0.00 0.00 85 1005.4
20260902141705 15 204 0.0 3.2 0.00 0.00 0.00 85 1005.4
20260902141205 15 204 0.0 3.2 0.00 0.00 0.00 85 1005.4
20260902140204 15 212 0.0 3.2 0.00 0.00 0.00 85 1005.4
20260902135705 15 208 0.0 1.6 0.00 0.00 0.00 85 1005.4
20260902135205 15 208 0.0 3.2 0.00 0.00 0.00 85 1005.4
20260902134705 15 208 0.0 3.2 0.00 0.00 0.00 85 1005.4
20260902133705 15 208 0.0 3.2 0.00 0.00 0.00 85 1005.4
20260902131705 15 125 0.0 3.2 0.00 0.00 0.00 85 1005.5
20260902131205 15 75 0.0 3.2 0.00 0.00 0.00 85 1005.6
20260902130205 15 109 0.0 3.2 0.00 0.00 0.00 86 1005.7
20260902125205 15 181 0.0 3.2 0.00 0.00 0.00 86 1005.7
20260902123205 15 248 0.0 3.2 0.00 0.00 0.00 87 1005.8
20260902122204 15 171 0.0 3.2 0.00 0.00 0.00 88 1005.8
20260902121705 15 171 0.0 1.6 0.00 0.00 0.00 88 1005.8
20260902121204 15 320 0.0 1.6 0.00 0.00 0.00 88 1005.9
20260902115705 15 85 0.0 3.2 0.00 0.00 0.00 90 1006.0
20260902112204 15 64 0.0 3.2 0.00 0.00 0.00 90 1006.2
20260902111705 15 131 0.0 3.2 0.00 0.00 0.00 90 1006.2
20260902110705 15 117 0.0 3.2 0.00 0.00 0.00 90 1006.2
20260902110205 15 117 0.0 3.2 0.00 0.00 0.00 90 1006.4
20260902105705 15 123 0.0 1.6 0.00 0.00 0.00 90 1006.5
20260902105205 15 123 0.0 3.2 0.00 0.00 0.00 90 1006.4
20260902104205 15 106 0.0 3.2 0.00 0.00 0.00 90 1006.5
20260902103705 15 79 0.0 1.6 0.00 0.00 0.00 90 1006.5
20260902103205 15 140 0.0 3.2 0.00 0.00 0.00 90 1006.4
20260902102704 15 154 0.0 3.2 0.00 0.00 0.00 90 1006.6
20260902101205 15 154 0.0 1.6 0.00 0.00 0.00 90 1006.7
20260902100705 15 153 0.0 3.2 0.00 0.00 0.00 90 1006.7
20260902095205 15 155 0.0 3.2 0.00 0.00 0.00 90 1006.7
20260902094204 15 162 0.0 3.2 0.00 0.00 0.00 89 1006.7
20260902093704 15 162 0.0 3.2 0.00 0.00 0.00 88 1006.7
20260902093204 15 162 0.0 3.2 0.00 0.00 0.00 87 1006.7
20260902085205 15 157 0.0 3.2 0.00 0.00 0.00 86 1007.2
20260902084205 15 156 1.6 3.2 0.00 0.00 0.00 86 1007.3
20260902081705 15 215 0.0 3.2 0.00 0.00 0.00 85 1007.4
20260902075704 15 310 0.0 3.2 0.00 0.00 0.00 86 1007.4
20260902074705 15 141 0.0 1.6 0.00 0.00 0.00 86 1007.5
20260902073704 15 152 0.0 3.2 0.00 0.00 0.00 86 1007.6
20260902072704 15 158 1.6 3.2 0.00 0.00 0.00 86 1007.5
20260902071705 15 165 1.6 3.2 0.00 0.00 0.00 86 1007.4
20260902071205 15 162 1.6 3.2 0.00 0.00 0.00 86 1007.4
20260902070705 15 163 0.0 3.2 0.00 0.00 0.00 87 1007.3
20260902070205 15 162 1.6 3.2 0.00 0.00 0.00 86 1007.4
20260902065704 15 154 1.6 3.2 0.00 0.00 0.00 85 1007.3
20260902062704 15 148 0.0 3.2 0.00 0.00 0.00 87 1007.3
20260902061204 15 93 1.6 3.2 0.00 0.00 0.00 87 1007.2
20260902054204 15 159 1.6 3.2 0.00 0.00 0.00 87 1007.4
20260902053704 15 217 0.0 3.2 0.00 0.00 0.00 87 1007.5
20260902051705 15 167 0.0 3.2 0.00 0.00 0.00 87 1007.6
20260902050705 15 173 1.6 3.2 0.00 0.00 0.00 88 1007.7
20260902045705 15 163 0.0 4.8 0.00 0.00 0.00 88 1007.8
20260902045204 15 105 0.0 3.2 0.00 0.00 0.00 88 1007.8
20260902044205 15 167 0.0 3.2 0.00 0.00 0.00 88 1007.8
20260902043205 15 143 1.6 1.6 0.00 0.00 0.00 87 1007.8
20260902042704 15 148 0.0 3.2 0.00 0.00 0.00 87 1007.8
20260902040204 16 120 1.6 3.2 0.00 0.00 0.00 86 1007.7
20260902035204 16 134 0.0 3.2 0.00 0.00 0.00 85 1007.7
20260902033705 16 121 0.0 3.2 0.00 0.00 0.00 85 1007.6
20260902031704 16 113 1.6 3.2 0.00 0.00 0.00 85 1007.5
20260902031204 16 150 1.6 3.2 0.00 0.00 0.00 85 1007.4
20260902030704 16 155 0.0 3.2 0.00 0.00 0.00 85 1007.4
20260902025704 16 157 0.0 3.2 0.00 0.00 0.00 85 1007.3
20260902024204 16 174 0.0 3.2 0.00 0.00 0.00 84 1007.3
20260902021705 17 111 0.0 3.2 0.00 0.00 0.00 82 1007.3
20260902021205 17 175 1.6 3.2 0.00 0.00 0.00 82 1007.4
20260902020704 17 135 1.6 3.2 0.00 0.00 0.00 82 1007.3
20260902015205 17 149 1.6 3.2 0.00 0.00 0.00 81 1007.4
20260902014705 17 160 1.6 4.8 0.00 0.00 0.00 81 1007.3
20260902014205 17 152 1.6 4.8 0.00 0.00 0.00 81 1007.3
20260902013204 17 155 1.6 4.8 0.00 0.00 0.00 80 1007.3
20260902011705 17 161 1.6 3.2 0.00 0.00 0.00 79 1007.3
20260902005705 18 155 0.0 3.2 0.00 0.00 0.00 79 1007.3
20260902005204 17 122 1.6 3.2 0.00 0.00 0.00 79 1007.3
20260902004205 17 152 0.0 3.2 0.00 0.00 0.00 78 1007.3
20260902002705 18 149 1.6 4.8 0.00 0.00 0.00 77 1007.3
20260902001704 18 156 1.6 4.8 0.00 0.00 0.00 77 1007.3
20260902001205 18 181 1.6 3.2 0.00 0.00 0.00 77 1007.3
20260902000204 18 166 1.6 4.8 0.00 0.00 0.00 76 1007.3
20260901235705 18 193 1.6 4.8 0.00 0.00 0.00 76 1007.3
20260901235204 18 165 1.6 4.8 0.00 0.00 0.00 75 1007.3
20260901234705 18 163 1.6 3.2 0.00 0.00 0.00 74 1007.3
20260901234205 18 164 1.6 4.8 0.00 0.00 0.00 74 1007.4
20260901232705 18 147 1.6 4.8 0.00 0.00 0.00 73 1007.3
20260901231705 19 156 1.6 4.8 0.00 0.00 0.00 72 1007.3
20260901230704 19 177 1.6 3.2 0.00 0.00 0.00 73 1007.3
20260901230204 19 172 1.6 4.8 0.00 0.00 0.00 73 1007.3
20260901225705 19 155 1.6 3.2 0.00 0.00 0.00 72 1007.3
20260901223205 19 144 1.6 3.2 0.00 0.00 0.00 74 1007.3
20260901222704 19 156 1.6 4.8 0.00 0.00 0.00 73 1007.3
20260901221705 19 175 1.6 3.2 0.00 0.00 0.00 72 1007.3
20260901221205 20 153 1.6 3.2 0.00 0.00 0.00 73 1007.4
20260901220705 19 137 1.6 3.2 0.00 0.00 0.00 72 1007.5
20260901215204 19 180 0.0 3.2 0.00 0.00 0.00 72 1007.6
20260901214205 20 162 1.6 4.8 0.00 0.00 0.00 72 1007.5
20260901213705 20 167 1.6 3.2 0.00 0.00 0.00 72 1007.5
20260901212704 19 144 1.6 3.2 0.00 0.00 0.00 74 1007.6
20260901211704 20 144 1.6 3.2 0.00 0.00 0.00 73 1007.7